contact:dominique.lefevre@mio.osupytheas.fr, maurice.libes@osupytheas.fr, didier.mallarino@osupytheas.fr
Project:EMSO http://www.emso-fr.org/EMSO-France
Depth: 2436.0 m
Title:EMSO Ligure Ouest : Data MII capteur MICROCAT
DateTime_Computer,Latitude,Longitude,Temperature,Conductivity,Pressure,DateTime_Instrument
DateTime_Computer,Latitude,Longitude,degC,S m-1,dbar,DateTime_Instrument
2019-06-22T00:01:27Z,42.805,6.029,13.3015,4.59991,2469.984,2019-6-22T02:01:44Z
2019-06-22T00:04:30Z,42.805,6.029,13.3000,4.60018,2469.96,2019-6-22T02:04:47Z
2019-06-22T00:07:33Z,42.805,6.029,13.2999,4.60000,2469.96,2019-6-22T02:07:50Z
2019-06-22T00:10:36Z,42.805,6.029,13.2989,4.60014,2469.923,2019-6-22T02:10:53Z
2019-06-22T00:13:39Z,42.805,6.029,13.2992,4.60021,2469.937,2019-6-22T02:13:56Z
2019-06-22T00:16:42Z,42.805,6.029,13.2993,4.59982,2469.984,2019-6-22T02:16:59Z
2019-06-22T00:19:45Z,42.805,6.029,13.2993,4.59984,2469.97,2019-6-22T02:20:02Z
2019-06-22T00:22:48Z,42.805,6.029,13.3046,4.59980,2469.947,2019-6-22T02:23:05Z
2019-06-22T00:25:51Z,42.805,6.029,13.2996,4.59999,2469.937,2019-6-22T02:26:07Z
2019-06-22T00:28:54Z,42.805,6.029,13.3010,4.60022,2469.947,2019-6-22T02:29:10Z
2019-06-22T00:31:57Z,42.805,6.029,13.2986,4.60015,2469.923,2019-6-22T02:32:13Z
2019-06-22T00:35:00Z,42.805,6.029,13.2993,4.59998,2469.96,2019-6-22T02:35:16Z
2019-06-22T00:38:03Z,42.805,6.029,13.3009,4.59987,2469.96,2019-6-22T02:38:19Z
2019-06-22T00:41:06Z,42.805,6.029,13.3020,4.60003,2469.947,2019-6-22T02:41:22Z
2019-06-22T00:44:09Z,42.805,6.029,13.3045,4.60006,2469.96,2019-6-22T02:44:25Z
2019-06-22T00:47:12Z,42.805,6.029,13.3007,4.59995,2469.914,2019-6-22T02:47:28Z
2019-06-22T00:50:14Z,42.805,6.029,13.3034,4.59988,2469.937,2019-6-22T02:50:31Z
2019-06-22T00:53:17Z,42.805,6.029,13.3037,4.59982,2469.923,2019-6-22T02:53:34Z
2019-06-22T00:56:20Z,42.805,6.029,13.3039,4.60005,2469.937,2019-6-22T02:56:37Z
2019-06-22T00:59:23Z,42.805,6.029,13.3021,4.60005,2469.96,2019-6-22T02:59:40Z
2019-06-22T01:02:26Z,42.805,6.029,13.3032,4.59993,2469.97,2019-6-22T03:02:43Z
2019-06-22T01:05:29Z,42.805,6.029,13.3033,4.60019,2469.937,2019-6-22T03:05:46Z
2019-06-22T01:08:32Z,42.805,6.029,13.3026,4.60010,2469.9,2019-6-22T03:08:49Z
2019-06-22T01:11:35Z,42.805,6.029,13.3010,4.60001,2469.937,2019-6-22T03:11:52Z
2019-06-22T01:14:38Z,42.805,6.029,13.3040,4.60019,2469.937,2019-6-22T03:14:55Z
2019-06-22T01:17:41Z,42.805,6.029,13.3031,4.59997,2469.914,2019-6-22T03:17:58Z
2019-06-22T01:20:44Z,42.805,6.029,13.3024,4.60009,2469.9,2019-6-22T03:21:01Z
2019-06-22T01:23:47Z,42.805,6.029,13.3021,4.59994,2469.96,2019-6-22T03:24:04Z
2019-06-22T01:26:50Z,42.805,6.029,13.3022,4.59996,2469.9,2019-6-22T03:27:06Z
2019-06-22T01:29:53Z,42.805,6.029,13.3026,4.60004,2469.9,2019-6-22T03:30:09Z
2019-06-22T01:32:56Z,42.805,6.029,13.3031,4.60009,2469.914,2019-6-22T03:33:12Z
2019-06-22T01:35:59Z,42.805,6.029,13.3034,4.60005,2469.886,2019-6-22T03:36:15Z
2019-06-22T01:39:02Z,42.805,6.029,13.3024,4.60007,2469.9,2019-6-22T03:39:18Z
2019-06-22T01:42:05Z,42.805,6.029,13.3022,4.60008,2469.937,2019-6-22T03:42:21Z
2019-06-22T01:45:08Z,42.805,6.029,13.3038,4.60021,2469.914,2019-6-22T03:45:24Z
2019-06-22T01:48:11Z,42.805,6.029,13.3053,4.60002,2469.914,2019-6-22T03:48:27Z
2019-06-22T01:51:13Z,42.805,6.029,13.3040,4.60011,2469.937,2019-6-22T03:51:30Z
2019-06-22T01:54:16Z,42.805,6.029,13.3038,4.60005,2469.923,2019-6-22T03:54:33Z
2019-06-22T01:57:19Z,42.805,6.029,13.3026,4.60008,2469.914,2019-6-22T03:57:36Z
2019-06-22T02:00:22Z,42.805,6.029,13.3036,4.59999,2469.89,2019-6-22T04:00:39Z
2019-06-22T02:03:25Z,42.805,6.029,13.3029,4.60009,2469.876,2019-6-22T04:03:42Z
2019-06-22T02:06:28Z,42.805,6.029,13.3028,4.59994,2469.89,2019-6-22T04:06:45Z
2019-06-22T02:09:31Z,42.805,6.029,13.3045,4.60001,2469.914,2019-6-22T04:09:48Z
2019-06-22T02:12:34Z,42.805,6.029,13.3013,4.60026,2469.876,2019-6-22T04:12:51Z
2019-06-22T02:15:37Z,42.805,6.029,13.3014,4.60025,2469.89,2019-6-22T04:15:54Z
2019-06-22T02:18:40Z,42.805,6.029,13.3009,4.60017,2469.876,2019-6-22T04:18:57Z
2019-06-22T02:21:43Z,42.805,6.029,13.3020,4.60002,2469.876,2019-6-22T04:22:00Z
2019-06-22T02:24:46Z,42.805,6.029,13.3058,4.60011,2469.914,2019-6-22T04:25:03Z
2019-06-22T02:27:49Z,42.805,6.029,13.3035,4.60015,2469.89,2019-6-22T04:28:05Z
2019-06-22T02:30:52Z,42.805,6.029,13.3011,4.60016,2469.914,2019-6-22T04:31:08Z
2019-06-22T02:33:55Z,42.805,6.029,13.3015,4.60028,2469.876,2019-6-22T04:34:11Z
2019-06-22T02:36:58Z,42.805,6.029,13.3016,4.60046,2469.914,2019-6-22T04:37:14Z
2019-06-22T02:40:01Z,42.805,6.029,13.2992,4.59999,2469.867,2019-6-22T04:40:17Z
2019-06-22T02:43:04Z,42.805,6.029,13.2958,4.60029,2469.914,2019-6-22T04:43:20Z
2019-06-22T02:46:07Z,42.805,6.029,13.2960,4.60057,2469.89,2019-6-22T04:46:23Z
2019-06-22T02:49:10Z,42.805,6.029,13.2964,4.60046,2469.89,2019-6-22T04:49:26Z
2019-06-22T02:52:12Z,42.805,6.029,13.2961,4.60007,2469.89,2019-6-22T04:52:29Z
2019-06-22T02:55:15Z,42.805,6.029,13.2957,4.59999,2469.853,2019-6-22T04:55:32Z
2019-06-22T02:58:18Z,42.805,6.029,13.2961,4.59991,2469.876,2019-6-22T04:58:35Z
2019-06-22T03:01:21Z,42.805,6.029,13.2962,4.59979,2469.876,2019-6-22T05:01:38Z
2019-06-22T03:04:24Z,42.805,6.029,13.2958,4.59977,2469.83,2019-6-22T05:04:41Z
2019-06-22T03:07:27Z,42.805,6.029,13.2964,4.59978,2469.853,2019-6-22T05:07:44Z
2019-06-22T03:10:30Z,42.805,6.029,13.2957,4.59978,2469.89,2019-6-22T05:10:47Z
2019-06-22T03:13:33Z,42.805,6.029,13.2959,4.59976,2469.853,2019-6-22T05:13:50Z
2019-06-22T03:16:36Z,42.805,6.029,13.2959,4.59968,2469.853,2019-6-22T05:16:53Z
2019-06-22T03:19:39Z,42.805,6.029,13.2957,4.59968,2469.876,2019-6-22T05:19:56Z
2019-06-22T03:22:42Z,42.805,6.029,13.2957,4.59974,2469.853,2019-6-22T05:22:59Z
2019-06-22T03:25:45Z,42.805,6.029,13.2958,4.59979,2469.89,2019-6-22T05:26:01Z
2019-06-22T03:28:48Z,42.805,6.029,13.2960,4.59981,2469.876,2019-6-22T05:29:04Z
2019-06-22T03:31:51Z,42.805,6.029,13.2958,4.59974,2469.867,2019-6-22T05:32:07Z
2019-06-22T03:34:54Z,42.805,6.029,13.2959,4.59976,2469.89,2019-6-22T05:35:10Z
2019-06-22T03:37:57Z,42.805,6.029,13.2959,4.59971,2469.821,2019-6-22T05:38:13Z
2019-06-22T03:41:00Z,42.805,6.029,13.2956,4.59971,2469.853,2019-6-22T05:41:16Z
2019-06-22T03:44:03Z,42.805,6.029,13.2958,4.59975,2469.853,2019-6-22T05:44:19Z
2019-06-22T03:47:06Z,42.805,6.029,13.2958,4.59982,2469.867,2019-6-22T05:47:22Z
2019-06-22T03:50:08Z,42.805,6.029,13.2954,4.59983,2469.876,2019-6-22T05:50:25Z
2019-06-22T03:53:11Z,42.805,6.029,13.2958,4.59982,2469.876,2019-6-22T05:53:28Z
2019-06-22T03:56:14Z,42.805,6.029,13.2961,4.59979,2469.853,2019-6-22T05:56:31Z
2019-06-22T03:59:17Z,42.805,6.029,13.2958,4.59976,2469.867,2019-6-22T05:59:34Z
2019-06-22T04:02:20Z,42.805,6.029,13.2958,4.59970,2469.844,2019-6-22T06:02:37Z
2019-06-22T04:05:23Z,42.805,6.029,13.2961,4.59967,2469.876,2019-6-22T06:05:40Z
2019-06-22T04:08:26Z,42.805,6.029,13.2957,4.59962,2469.853,2019-6-22T06:08:43Z
2019-06-22T04:11:29Z,42.805,6.029,13.2953,4.59960,2469.867,2019-6-22T06:11:46Z
2019-06-22T04:14:32Z,42.805,6.029,13.2952,4.59960,2469.853,2019-6-22T06:14:49Z
2019-06-22T04:17:35Z,42.805,6.029,13.2958,4.59966,2469.853,2019-6-22T06:17:52Z
2019-06-22T04:20:38Z,42.805,6.029,13.2956,4.59961,2469.821,2019-6-22T06:20:55Z
2019-06-22T04:23:41Z,42.805,6.029,13.2958,4.59966,2469.853,2019-6-22T06:23:58Z
2019-06-22T04:26:44Z,42.805,6.029,13.2955,4.59960,2469.806,2019-6-22T06:27:00Z
2019-06-22T04:29:47Z,42.805,6.029,13.2957,4.59958,2469.844,2019-6-22T06:30:03Z
2019-06-22T04:32:50Z,42.805,6.029,13.2961,4.59967,2469.821,2019-6-22T06:33:06Z
2019-06-22T04:35:53Z,42.805,6.029,13.2957,4.59964,2469.83,2019-6-22T06:36:09Z
2019-06-22T04:38:56Z,42.805,6.029,13.2954,4.59964,2469.844,2019-6-22T06:39:12Z
2019-06-22T04:41:59Z,42.805,6.029,13.2957,4.59963,2469.867,2019-6-22T06:42:15Z
2019-06-22T04:45:02Z,42.805,6.029,13.2956,4.59960,2469.853,2019-6-22T06:45:18Z
2019-06-22T04:48:04Z,42.805,6.029,13.2952,4.59969,2469.853,2019-6-22T06:48:21Z
2019-06-22T04:51:07Z,42.805,6.029,13.2958,4.59966,2469.83,2019-6-22T06:51:24Z
2019-06-22T04:54:10Z,42.805,6.029,13.2958,4.59958,2469.83,2019-6-22T06:54:27Z
2019-06-22T04:57:13Z,42.805,6.029,13.2961,4.59958,2469.839,2019-6-22T06:57:30Z
2019-06-22T05:00:16Z,42.805,6.029,13.2957,4.59961,2469.844,2019-6-22T07:00:33Z
2019-06-22T05:03:19Z,42.805,6.029,13.2953,4.59957,2469.83,2019-6-22T07:03:36Z
2019-06-22T05:06:22Z,42.805,6.029,13.2951,4.59960,2469.844,2019-6-22T07:06:39Z
2019-06-22T05:09:25Z,42.805,6.029,13.2956,4.59964,2469.797,2019-6-22T07:09:42Z
2019-06-22T05:12:28Z,42.805,6.029,13.2961,4.59959,2469.853,2019-6-22T07:12:45Z
2019-06-22T05:15:31Z,42.805,6.029,13.2958,4.59961,2469.806,2019-6-22T07:15:48Z
2019-06-22T05:18:34Z,42.805,6.029,13.2957,4.59960,2469.844,2019-6-22T07:18:51Z
2019-06-22T05:21:37Z,42.805,6.029,13.2958,4.59961,2469.853,2019-6-22T07:21:54Z
2019-06-22T05:24:40Z,42.805,6.029,13.2955,4.59961,2469.867,2019-6-22T07:24:56Z
2019-06-22T05:27:43Z,42.805,6.029,13.2958,4.59961,2469.83,2019-6-22T07:27:59Z
2019-06-22T05:30:46Z,42.805,6.029,13.2957,4.59961,2469.83,2019-6-22T07:31:02Z
2019-06-22T05:33:49Z,42.805,6.029,13.2955,4.59961,2469.83,2019-6-22T07:34:05Z
2019-06-22T05:36:52Z,42.805,6.029,13.2952,4.59961,2469.844,2019-6-22T07:37:08Z
2019-06-22T05:39:55Z,42.805,6.029,13.2955,4.59959,2469.821,2019-6-22T07:40:11Z
2019-06-22T05:42:58Z,42.805,6.029,13.2959,4.59958,2469.83,2019-6-22T07:43:14Z
2019-06-22T05:46:00Z,42.805,6.029,13.2957,4.59961,2469.83,2019-6-22T07:46:17Z
2019-06-22T05:49:03Z,42.805,6.029,13.2957,4.59961,2469.83,2019-6-22T07:49:20Z
2019-06-22T05:52:06Z,42.805,6.029,13.2957,4.59961,2469.853,2019-6-22T07:52:23Z
2019-06-22T05:55:09Z,42.805,6.029,13.2957,4.59962,2469.821,2019-6-22T07:55:26Z
2019-06-22T05:58:12Z,42.805,6.029,13.2958,4.59964,2469.853,2019-6-22T07:58:29Z
2019-06-22T06:01:15Z,42.805,6.029,13.2957,4.59962,2469.844,2019-6-22T08:01:32Z
2019-06-22T06:04:18Z,42.805,6.029,13.2957,4.59964,2469.83,2019-6-22T08:04:35Z
2019-06-22T06:07:21Z,42.805,6.029,13.2950,4.59966,2469.83,2019-6-22T08:07:38Z
2019-06-22T06:10:24Z,42.805,6.029,13.2958,4.59961,2469.844,2019-6-22T08:10:41Z
2019-06-22T06:13:27Z,42.805,6.029,13.2957,4.59966,2469.821,2019-6-22T08:13:44Z
2019-06-22T06:16:30Z,42.805,6.029,13.2957,4.59965,2469.821,2019-6-22T08:16:47Z
2019-06-22T06:19:33Z,42.805,6.029,13.2958,4.59958,2469.83,2019-6-22T08:19:50Z
2019-06-22T06:22:36Z,42.805,6.029,13.2962,4.59961,2469.83,2019-6-22T08:22:53Z
2019-06-22T06:25:39Z,42.805,6.029,13.2956,4.59966,2469.83,2019-6-22T08:25:55Z
2019-06-22T06:28:42Z,42.805,6.029,13.2954,4.59964,2469.844,2019-6-22T08:28:58Z
2019-06-22T06:31:45Z,42.805,6.029,13.2954,4.59966,2469.806,2019-6-22T08:32:01Z
2019-06-22T06:34:48Z,42.805,6.029,13.2957,4.59968,2469.867,2019-6-22T08:35:04Z
2019-06-22T06:37:51Z,42.805,6.029,13.2954,4.59962,2469.867,2019-6-22T08:38:07Z
2019-06-22T06:40:54Z,42.805,6.029,13.2957,4.59961,2469.853,2019-6-22T08:41:10Z
2019-06-22T06:43:57Z,42.805,6.029,13.2957,4.59960,2469.867,2019-6-22T08:44:13Z
2019-06-22T06:46:59Z,42.805,6.029,13.2962,4.59964,2469.867,2019-6-22T08:47:16Z
2019-06-22T06:50:02Z,42.805,6.029,13.2955,4.59958,2469.806,2019-6-22T08:50:19Z
2019-06-22T06:53:05Z,42.805,6.029,13.2956,4.59964,2469.867,2019-6-22T08:53:22Z
2019-06-22T06:56:08Z,42.805,6.029,13.2960,4.59976,2469.867,2019-6-22T08:56:25Z
2019-06-22T06:59:11Z,42.805,6.029,13.2959,4.59964,2469.853,2019-6-22T08:59:28Z
2019-06-22T07:02:14Z,42.805,6.029,13.2957,4.59964,2469.853,2019-6-22T09:02:31Z
2019-06-22T07:05:17Z,42.805,6.029,13.2953,4.59963,2469.853,2019-6-22T09:05:34Z
2019-06-22T07:08:20Z,42.805,6.029,13.2957,4.59965,2469.89,2019-6-22T09:08:37Z
2019-06-22T07:11:23Z,42.805,6.029,13.2961,4.59978,2469.867,2019-6-22T09:11:40Z
2019-06-22T07:14:26Z,42.805,6.029,13.2961,4.59971,2469.853,2019-6-22T09:14:43Z
2019-06-22T07:17:29Z,42.805,6.029,13.2953,4.59973,2469.867,2019-6-22T09:17:46Z
2019-06-22T07:20:32Z,42.805,6.029,13.2955,4.59973,2469.844,2019-6-22T09:20:48Z
2019-06-22T07:23:35Z,42.805,6.029,13.2957,4.59962,2469.853,2019-6-22T09:23:51Z
2019-06-22T07:26:38Z,42.805,6.029,13.2958,4.59964,2469.867,2019-6-22T09:26:54Z
2019-06-22T07:29:41Z,42.805,6.029,13.2959,4.59968,2469.89,2019-6-22T09:29:57Z
2019-06-22T07:32:44Z,42.805,6.029,13.2953,4.59960,2469.853,2019-6-22T09:33:00Z
2019-06-22T07:35:47Z,42.805,6.029,13.2953,4.59959,2469.853,2019-6-22T09:36:03Z
2019-06-22T07:38:50Z,42.805,6.029,13.2958,4.59958,2469.844,2019-6-22T09:39:06Z
2019-06-22T07:41:53Z,42.805,6.029,13.2958,4.59958,2469.876,2019-6-22T09:42:09Z
2019-06-22T07:44:55Z,42.805,6.029,13.2957,4.59961,2469.914,2019-6-22T09:45:12Z
2019-06-22T07:47:58Z,42.805,6.029,13.2955,4.59958,2469.876,2019-6-22T09:48:15Z
2019-06-22T07:51:01Z,42.805,6.029,13.2961,4.59964,2469.853,2019-6-22T09:51:18Z
2019-06-22T07:54:04Z,42.805,6.029,13.2954,4.59961,2469.876,2019-6-22T09:54:21Z
2019-06-22T07:57:07Z,42.805,6.029,13.2958,4.59962,2469.89,2019-6-22T09:57:24Z
2019-06-22T08:00:10Z,42.805,6.029,13.2959,4.59970,2469.853,2019-6-22T10:00:27Z
2019-06-22T08:03:13Z,42.805,6.029,13.2960,4.59961,2469.867,2019-6-22T10:03:30Z
2019-06-22T08:06:16Z,42.805,6.029,13.2957,4.59970,2469.9,2019-6-22T10:06:33Z
2019-06-22T08:09:19Z,42.805,6.029,13.2957,4.59965,2469.876,2019-6-22T10:09:36Z
2019-06-22T08:12:22Z,42.805,6.029,13.2957,4.59961,2469.9,2019-6-22T10:12:39Z
2019-06-22T08:15:25Z,42.805,6.029,13.2961,4.59961,2469.876,2019-6-22T10:15:42Z
2019-06-22T08:18:28Z,42.805,6.029,13.2961,4.59959,2469.853,2019-6-22T10:18:45Z
2019-06-22T08:21:31Z,42.805,6.029,13.2958,4.59961,2469.89,2019-6-22T10:21:47Z
2019-06-22T08:24:34Z,42.805,6.029,13.2954,4.59964,2469.9,2019-6-22T10:24:50Z
2019-06-22T08:27:37Z,42.805,6.029,13.2961,4.59962,2469.876,2019-6-22T10:27:53Z
2019-06-22T08:30:40Z,42.805,6.029,13.2963,4.59960,2469.89,2019-6-22T10:30:56Z
2019-06-22T08:33:43Z,42.805,6.029,13.2957,4.59961,2469.89,2019-6-22T10:33:59Z
2019-06-22T08:36:46Z,42.805,6.029,13.2958,4.59960,2469.867,2019-6-22T10:37:02Z
2019-06-22T08:39:49Z,42.805,6.029,13.2957,4.59972,2469.89,2019-6-22T10:40:05Z
2019-06-22T08:42:52Z,42.805,6.029,13.2958,4.59968,2469.867,2019-6-22T10:43:08Z
2019-06-22T08:45:55Z,42.805,6.029,13.2964,4.59963,2469.876,2019-6-22T10:46:11Z
2019-06-22T08:48:57Z,42.805,6.029,13.2963,4.59982,2469.9,2019-6-22T10:49:14Z
2019-06-22T08:52:00Z,42.805,6.029,13.2963,4.59986,2469.876,2019-6-22T10:52:17Z
2019-06-22T08:55:03Z,42.805,6.029,13.2959,4.59972,2469.89,2019-6-22T10:55:20Z
2019-06-22T08:58:06Z,42.805,6.029,13.2965,4.59963,2469.89,2019-6-22T10:58:23Z
2019-06-22T09:01:09Z,42.805,6.029,13.2960,4.59966,2469.9,2019-6-22T11:01:26Z
2019-06-22T09:04:12Z,42.805,6.029,13.2965,4.59962,2469.914,2019-6-22T11:04:29Z
2019-06-22T09:07:15Z,42.805,6.029,13.2958,4.59964,2469.89,2019-6-22T11:07:32Z
2019-06-22T09:10:18Z,42.805,6.029,13.2957,4.59966,2469.853,2019-6-22T11:10:35Z
2019-06-22T09:13:21Z,42.805,6.029,13.2958,4.59964,2469.9,2019-6-22T11:13:38Z
2019-06-22T09:16:24Z,42.805,6.029,13.2958,4.59966,2469.876,2019-6-22T11:16:41Z
2019-06-22T09:19:27Z,42.805,6.029,13.2963,4.59967,2469.9,2019-6-22T11:19:44Z
2019-06-22T09:22:30Z,42.805,6.029,13.2961,4.59961,2469.9,2019-6-22T11:22:47Z
2019-06-22T09:25:33Z,42.805,6.029,13.2958,4.59969,2469.89,2019-6-22T11:25:50Z
2019-06-22T09:28:36Z,42.805,6.029,13.2963,4.59964,2469.923,2019-6-22T11:28:52Z
2019-06-22T09:31:39Z,42.805,6.029,13.2958,4.59966,2469.9,2019-6-22T11:31:55Z
2019-06-22T09:34:42Z,42.805,6.029,13.2958,4.59967,2469.9,2019-6-22T11:34:58Z
2019-06-22T09:37:45Z,42.805,6.029,13.2958,4.59987,2469.867,2019-6-22T11:38:01Z
2019-06-22T09:40:48Z,42.805,6.029,13.2959,4.59980,2469.923,2019-6-22T11:41:04Z
2019-06-22T09:43:51Z,42.805,6.029,13.2960,4.59967,2469.9,2019-6-22T11:44:07Z
2019-06-22T09:46:54Z,42.805,6.029,13.2957,4.59967,2469.923,2019-6-22T11:47:10Z
2019-06-22T09:49:57Z,42.805,6.029,13.2960,4.59965,2469.9,2019-6-22T11:50:13Z
2019-06-22T09:52:59Z,42.805,6.029,13.2957,4.59960,2469.923,2019-6-22T11:53:16Z
2019-06-22T09:56:02Z,42.805,6.029,13.2958,4.59960,2469.867,2019-6-22T11:56:19Z
2019-06-22T09:59:05Z,42.805,6.029,13.2958,4.59964,2469.876,2019-6-22T11:59:22Z
2019-06-22T10:02:08Z,42.805,6.029,13.2956,4.59959,2469.89,2019-6-22T12:02:25Z
2019-06-22T10:05:11Z,42.805,6.029,13.2955,4.59968,2469.89,2019-6-22T12:05:28Z
2019-06-22T10:08:14Z,42.805,6.029,13.2958,4.59962,2469.876,2019-6-22T12:08:31Z
2019-06-22T10:11:17Z,42.805,6.029,13.2958,4.59963,2469.853,2019-6-22T12:11:34Z
2019-06-22T10:14:20Z,42.805,6.029,13.2960,4.59965,2469.876,2019-6-22T12:14:37Z
2019-06-22T10:17:23Z,42.805,6.029,13.2957,4.59967,2469.914,2019-6-22T12:17:40Z
2019-06-22T10:20:26Z,42.805,6.029,13.2957,4.59986,2469.876,2019-6-22T12:20:43Z
2019-06-22T10:23:29Z,42.805,6.029,13.2958,4.59991,2469.89,2019-6-22T12:23:46Z
2019-06-22T10:26:32Z,42.805,6.029,13.2957,4.59976,2469.853,2019-6-22T12:26:49Z
2019-06-22T10:29:35Z,42.805,6.029,13.2956,4.59966,2469.9,2019-6-22T12:29:52Z
2019-06-22T10:32:38Z,42.805,6.029,13.2958,4.59969,2469.923,2019-6-22T12:32:55Z
2019-06-22T10:35:41Z,42.805,6.029,13.2956,4.59964,2469.89,2019-6-22T12:35:57Z
2019-06-22T10:38:44Z,42.805,6.029,13.2952,4.59961,2469.914,2019-6-22T12:39:00Z
2019-06-22T10:41:47Z,42.805,6.029,13.2958,4.59960,2469.9,2019-6-22T12:42:03Z
2019-06-22T10:44:50Z,42.805,6.029,13.2958,4.59964,2469.9,2019-6-22T12:45:06Z
2019-06-22T10:47:53Z,42.805,6.029,13.2960,4.59973,2469.867,2019-6-22T12:48:09Z
2019-06-22T10:50:56Z,42.805,6.029,13.2958,4.59967,2469.914,2019-6-22T12:51:12Z
2019-06-22T10:53:59Z,42.805,6.029,13.2958,4.59966,2469.876,2019-6-22T12:54:15Z
2019-06-22T10:57:02Z,42.805,6.029,13.2957,4.59984,2469.876,2019-6-22T12:57:18Z
2019-06-22T11:00:04Z,42.805,6.029,13.2958,4.59970,2469.9,2019-6-22T13:00:21Z
2019-06-22T11:03:07Z,42.805,6.029,13.2958,4.59972,2469.9,2019-6-22T13:03:24Z
2019-06-22T11:06:10Z,42.805,6.029,13.2956,4.59963,2469.876,2019-6-22T13:06:27Z
2019-06-22T11:09:13Z,42.805,6.029,13.2958,4.59971,2469.876,2019-6-22T13:09:30Z
2019-06-22T11:12:16Z,42.805,6.029,13.2961,4.59968,2469.853,2019-6-22T13:12:33Z
2019-06-22T11:15:19Z,42.805,6.029,13.2956,4.59994,2469.876,2019-6-22T13:15:36Z
2019-06-22T11:18:22Z,42.805,6.029,13.2967,4.59974,2469.89,2019-6-22T13:18:39Z
2019-06-22T11:21:25Z,42.805,6.029,13.2959,4.59981,2469.853,2019-6-22T13:21:42Z
2019-06-22T11:24:28Z,42.805,6.029,13.2958,4.59981,2469.876,2019-6-22T13:24:45Z
2019-06-22T11:27:31Z,42.805,6.029,13.2961,4.59983,2469.914,2019-6-22T13:27:48Z
2019-06-22T11:30:34Z,42.805,6.029,13.2957,4.59979,2469.9,2019-6-22T13:30:51Z
2019-06-22T11:33:37Z,42.805,6.029,13.2953,4.60005,2469.853,2019-6-22T13:33:54Z
2019-06-22T11:36:40Z,42.805,6.029,13.2958,4.59986,2469.876,2019-6-22T13:36:57Z
2019-06-22T11:39:43Z,42.805,6.029,13.2961,4.59979,2469.853,2019-6-22T13:40:00Z
2019-06-22T11:42:46Z,42.805,6.029,13.2962,4.59965,2469.853,2019-6-22T13:43:02Z
2019-06-22T11:45:49Z,42.805,6.029,13.2955,4.59965,2469.876,2019-6-22T13:46:05Z
2019-06-22T11:48:52Z,42.805,6.029,13.2961,4.59966,2469.844,2019-6-22T13:49:08Z
2019-06-22T11:51:55Z,42.805,6.029,13.2958,4.59976,2469.844,2019-6-22T13:52:11Z
2019-06-22T11:54:58Z,42.805,6.029,13.2961,4.59969,2469.876,2019-6-22T13:55:14Z
2019-06-22T11:58:01Z,42.805,6.029,13.2958,4.59962,2469.806,2019-6-22T13:58:17Z
2019-06-22T12:01:04Z,42.805,6.029,13.2956,4.59963,2469.876,2019-6-22T14:01:20Z
2019-06-22T12:04:06Z,42.805,6.029,13.2959,4.59973,2469.867,2019-6-22T14:04:23Z
2019-06-22T12:07:09Z,42.805,6.029,13.2957,4.59978,2469.83,2019-6-22T14:07:26Z
2019-06-22T12:10:12Z,42.805,6.029,13.2961,4.59963,2469.867,2019-6-22T14:10:29Z
2019-06-22T12:13:15Z,42.805,6.029,13.2958,4.59968,2469.867,2019-6-22T14:13:32Z
2019-06-22T12:16:18Z,42.805,6.029,13.2958,4.59958,2469.89,2019-6-22T14:16:35Z
2019-06-22T12:19:21Z,42.805,6.029,13.2956,4.59970,2469.83,2019-6-22T14:19:38Z
2019-06-22T12:22:24Z,42.805,6.029,13.2957,4.59963,2469.844,2019-6-22T14:22:41Z
2019-06-22T12:25:27Z,42.805,6.029,13.2957,4.59965,2469.867,2019-6-22T14:25:44Z
2019-06-22T12:28:30Z,42.805,6.029,13.2957,4.59966,2469.83,2019-6-22T14:28:47Z
2019-06-22T12:31:33Z,42.805,6.029,13.2957,4.59973,2469.821,2019-6-22T14:31:50Z
2019-06-22T12:34:36Z,42.805,6.029,13.2956,4.59969,2469.867,2019-6-22T14:34:53Z
2019-06-22T12:37:39Z,42.805,6.029,13.2953,4.59973,2469.867,2019-6-22T14:37:56Z
2019-06-22T12:40:42Z,42.805,6.029,13.2960,4.60029,2469.83,2019-6-22T14:40:59Z
2019-06-22T12:43:45Z,42.805,6.029,13.2960,4.59979,2469.867,2019-6-22T14:44:01Z
2019-06-22T12:46:48Z,42.805,6.029,13.2979,4.60023,2469.844,2019-6-22T14:47:04Z
2019-06-22T12:49:51Z,42.805,6.029,13.2971,4.59973,2469.806,2019-6-22T14:50:07Z
2019-06-22T12:52:54Z,42.805,6.029,13.3025,4.59980,2469.83,2019-6-22T14:53:10Z
2019-06-22T12:55:57Z,42.805,6.029,13.3006,4.59971,2469.821,2019-6-22T14:56:13Z
2019-06-22T12:59:00Z,42.805,6.029,13.2995,4.59973,2469.844,2019-6-22T14:59:16Z
2019-06-22T13:02:03Z,42.805,6.029,13.2996,4.59968,2469.844,2019-6-22T15:02:19Z
2019-06-22T13:05:06Z,42.805,6.029,13.3001,4.59966,2469.821,2019-6-22T15:05:22Z
2019-06-22T13:08:08Z,42.805,6.029,13.3012,4.59973,2469.83,2019-6-22T15:08:25Z
2019-06-22T13:11:11Z,42.805,6.029,13.3006,4.59978,2469.844,2019-6-22T15:11:28Z
2019-06-22T13:14:14Z,42.805,6.029,13.3014,4.59968,2469.867,2019-6-22T15:14:31Z
2019-06-22T13:17:17Z,42.805,6.029,13.3010,4.59994,2469.797,2019-6-22T15:17:34Z
2019-06-22T13:20:20Z,42.805,6.029,13.2997,4.60023,2469.867,2019-6-22T15:20:37Z
2019-06-22T13:23:23Z,42.805,6.029,13.2986,4.60031,2469.821,2019-6-22T15:23:40Z
2019-06-22T13:26:26Z,42.805,6.029,13.2998,4.60037,2469.844,2019-6-22T15:26:43Z
2019-06-22T13:29:29Z,42.805,6.029,13.3024,4.60010,2469.806,2019-6-22T15:29:46Z
2019-06-22T13:32:32Z,42.805,6.029,13.3020,4.60028,2469.821,2019-6-22T15:32:49Z
2019-06-22T13:35:35Z,42.805,6.029,13.3010,4.60041,2469.821,2019-6-22T15:35:52Z
2019-06-22T13:38:38Z,42.805,6.029,13.3007,4.60029,2469.821,2019-6-22T15:38:55Z
2019-06-22T13:41:41Z,42.805,6.029,13.2997,4.60019,2469.806,2019-6-22T15:41:58Z
2019-06-22T13:44:44Z,42.805,6.029,13.3014,4.60021,2469.783,2019-6-22T15:45:01Z
2019-06-22T13:47:47Z,42.805,6.029,13.3019,4.60033,2469.806,2019-6-22T15:48:04Z
2019-06-22T13:50:50Z,42.805,6.029,13.3007,4.60000,2469.773,2019-6-22T15:51:06Z
2019-06-22T13:53:53Z,42.805,6.029,13.3017,4.60003,2469.821,2019-6-22T15:54:09Z
2019-06-22T13:56:56Z,42.805,6.029,13.3014,4.60008,2469.797,2019-6-22T15:57:12Z
2019-06-22T13:59:59Z,42.805,6.029,13.3026,4.60006,2469.783,2019-6-22T16:00:15Z
2019-06-22T14:03:02Z,42.805,6.029,13.3019,4.59986,2469.821,2019-6-22T16:03:18Z
2019-06-22T14:06:05Z,42.805,6.029,13.3008,4.59976,2469.821,2019-6-22T16:06:21Z
2019-06-22T14:09:08Z,42.805,6.029,13.3006,4.59976,2469.821,2019-6-22T16:09:24Z
2019-06-22T14:12:11Z,42.805,6.029,13.3014,4.59980,2469.797,2019-6-22T16:12:27Z
2019-06-22T14:15:13Z,42.805,6.029,13.3022,4.59994,2469.821,2019-6-22T16:15:30Z
2019-06-22T14:18:16Z,42.805,6.029,13.3012,4.59979,2469.773,2019-6-22T16:18:33Z
2019-06-22T14:21:19Z,42.805,6.029,13.3011,4.59987,2469.797,2019-6-22T16:21:36Z
2019-06-22T14:24:22Z,42.805,6.029,13.3017,4.59989,2469.797,2019-6-22T16:24:39Z
2019-06-22T14:27:25Z,42.805,6.029,13.3012,4.59998,2469.797,2019-6-22T16:27:42Z
2019-06-22T14:30:28Z,42.805,6.029,13.3015,4.60014,2469.797,2019-6-22T16:30:45Z
2019-06-22T14:33:31Z,42.805,6.029,13.3026,4.59995,2469.797,2019-6-22T16:33:48Z
2019-06-22T14:36:34Z,42.805,6.029,13.3019,4.60021,2469.806,2019-6-22T16:36:51Z
2019-06-22T14:39:37Z,42.805,6.029,13.3032,4.60006,2469.806,2019-6-22T16:39:54Z
2019-06-22T14:42:40Z,42.805,6.029,13.3034,4.60029,2469.797,2019-6-22T16:42:57Z
2019-06-22T14:45:43Z,42.805,6.029,13.3019,4.60005,2469.773,2019-6-22T16:46:00Z
2019-06-22T14:48:46Z,42.805,6.029,13.3026,4.59994,2469.821,2019-6-22T16:49:03Z
2019-06-22T14:51:49Z,42.805,6.029,13.3029,4.60014,2469.773,2019-6-22T16:52:06Z
2019-06-22T14:54:52Z,42.805,6.029,13.3041,4.60003,2469.773,2019-6-22T16:55:09Z
2019-06-22T14:57:55Z,42.805,6.029,13.3036,4.60015,2469.773,2019-6-22T16:58:11Z
2019-06-22T15:00:58Z,42.805,6.029,13.3044,4.60021,2469.783,2019-6-22T17:01:14Z
2019-06-22T15:04:01Z,42.805,6.029,13.3034,4.60007,2469.821,2019-6-22T17:04:17Z
2019-06-22T15:07:04Z,42.805,6.029,13.3036,4.59995,2469.773,2019-6-22T17:07:20Z
2019-06-22T15:10:07Z,42.805,6.029,13.3041,4.60004,2469.844,2019-6-22T17:10:23Z
2019-06-22T15:13:10Z,42.805,6.029,13.3033,4.59991,2469.806,2019-6-22T17:13:26Z